星链-5740 (STARLINK-5740 )

导读

STARLINK-5740是美国SpaceX公司星链(Starlink)星座的组成卫星,于2023年2月12日发射入轨。星链项目旨在构建低轨卫星互联网星座,为全球偏远、欠发达地区提供高速低延迟宽带服务。该星属于一代星链卫星,配备太阳能供电与星间通信技术,设计寿命约5-7年,退役后会主动离轨销毁,是SpaceX实现全球卫星互联网覆盖的重要节点。

Basic Information
目录编号:
55595
目录名称:
STARLINK-5740
国际标识:
2023-020AC
轨道中心:
EARTH
卫星名称:
星链-5740
卫星全名:
星链-5740 (STARLINK-5740 )
卫星状态:
已陨落 最后检测时间 2025-07-25
发射日期:
2023-02-12 UTC
国别 :
美国 (US)
星等 :
--
Orbit Information
数据来源 国际轨道数据
星历时间: 2025-07-25T12:29:36+0800
轨道信息已过期324天
半长轴: 6537.394km
偏心率: 0.0006633
轨道倾角: 42.974°
近地点辐角 262.679°
升交点赤经 119.826°
平近点角 215.427°
近地点: 154.922km
远地点: 163.596km
周期: 87.673分钟
每日圈数: 16.424638
Detailed Information
固有亮度:
5
最大亮度:
2.5
卫星平台:
Starlink v1.5
覆盖范围:
全球
运营商:
太空探索技术公司
运营商所在国:
美国
制造商(研发单位):
太空探索技术公司
制造商所在国:
美国
使用方式:
暂无
Satellite Introduction
星链(Starlink)计划是由太空探索技术公司(SpaceX)提出的一个巨型低轨卫星互联网星座项目,计划在2019年至2024年间在太空搭建由约1.2万颗卫星组成的“星链”网络,其中1584颗将部署在地球上空550千米处的近地轨道,并从2020年开始工作。该卫星仍在工作。